Location: Allisons_Woods
(35.8920°N, 81.8170°W)
Time: 15:17:07
(UTC-04:00)

Daily predictions for brighter satellites

Satellite Brightness Start Highest point End
(mag) Time Altitude Azimuth Time Altitude Azimuth Time Altitude Azimuth
RESURS DK-1 4.5 21:12:43 10° NNE 21:15:03 14° NE 21:17:23 10° E
Cosmos 1340 Rocket 2.9 21:15:48 10° S 21:19:49 89° WNW 21:23:54 10° N
NOSS 3-4 (A) 4.1 21:13:13 10° NW 21:20:21 75° WSW 21:27:56 10° SSE
NOSS 3-4 (C) 4.1 21:13:18 10° NW 21:20:27 75° WSW 21:28:02 10° SSE
Milstar 3 Cent rocket 3.6 21:15:19 10° WSW 21:20:55 41° S 21:31:04 10° ESE
Resurs 01 Rocket 2.5 21:20:41 10° S 21:24:56 49° W 21:29:13 10° NNW
SL-16 R/B 2.2 21:19:36 10° NNW 21:25:17 75° ENE 21:30:56 10° SSE
Meteor 2-15 Rocket 4.5 21:19:21 10° S 21:25:25 89° E 21:31:32 10° N
CZ-2D R/B 4.4 21:21:59 10° S 21:25:38 43° W 21:29:20 10° NNW
Resurs 1-3 4.4 21:21:47 10° S 21:26:04 54° W 21:30:23 10° NNW
Cosmos 1939 Rocket 3.1 21:23:17 10° SSE 21:27:12 56° ENE 21:31:12 10° N
Cosmos 1908 4.0 21:25:32 10° NNE 21:29:06 34° E 21:32:37 10° SE
CZ-3B R/B 3.2 21:32:02 10° SSW 21:34:26 67° SE 21:40:59 10° NE
Cosmos 1741 Rocket 4.4 21:29:23 10° SSW 21:34:42 71° WNW 21:40:00 10° NNE
Spot 2 Rocket 4.4 21:30:41 10° S 21:35:33 49° W 21:40:28 10° NNW
USA 186 3.1 21:35:48 10° SSW 21:37:46 24° W 21:39:41 10° NW
H-2A R/B 4.0 21:37:20 10° E 21:40:20 15° ENE 21:43:21 10° NNE
Cosmos 2100 Rocket 4.2 21:34:21 10° N 21:40:35 56° E 21:46:49 10° SSE
Cosmos 1076 Rocket 3.5 21:36:53 10° S 21:41:11 65° E 21:45:31 10° NNE
SL-19 R/B 4.4 21:36:00 10° SSE 21:41:42 81° WSW 21:47:17 10° NNW
GPS 2-05 Rocket1 2.7 21:39:11 10° WSW 21:42:11 49° SSE 21:45:06 11° E
Cosmos 2173 Rocket 4.1 21:41:03 10° N 21:47:08 57° E 21:53:12 10° SSE
Lacrosse 5 2.7 21:43:06 10° NNW 21:47:51 40° NE 21:51:53 14° ESE
SPOT 5 4.4 21:44:58 13° ESE 21:48:12 23° ENE 21:52:09 10° NNE
Cosmos 1818 3.7 21:43:10 10° NNW 21:48:37 75° WSW 21:53:39 12° SSE
Atlas Centaur 2 2.8 21:49:46 10° WSW 21:52:30 19° SSW 21:54:14 14° SSE
Cosmos 1408 Rocket 3.6 21:49:38 10° S 21:53:49 54° E 21:58:02 10° NNE
Cosmos 2061 Rocket 4.2 21:47:36 10° N 21:53:56 60° E 21:59:50 12° SSE
Abrixas rocket 4.3 21:52:04 10° NNW 21:54:34 20° NNE 21:57:04 10° ENE
YAOGAN 6 2.5 21:52:07 12° SSE 21:55:25 84° ENE 21:59:07 10° N
Cosmos 2227 4.3 21:54:30 10° SSW 22:00:15 86° WNW 22:05:59 10° NNE
Envisat 3.9 21:55:30 10° S 22:00:22 48° W 22:05:17 10° NNW
Cosmos 2221 3.0 21:56:16 10° NNW 22:00:37 64° W 22:04:57 10° S
Cosmos 1626 4.4 22:03:26 11° E 22:03:26 11° E 22:04:04 10° ENE
Meteor 1-29 4.0 22:03:57 10° N 22:07:16 47° WNW 22:10:36 10° SSW
Cosmos 1726 2.6 22:05:48 10° N 22:09:17 41° E 22:10:47 27° SE
Cosmos 1725 Rocket 4.4 22:06:30 10° N 22:12:26 44° E 22:16:09 22° SE
Terra 3.9 22:11:39 11° E 22:13:23 13° ENE 22:15:34 10° NE
Cosmos 1763 Rocket 4.3 22:09:24 10° N 22:14:02 34° ENE 22:16:28 22° ESE
Cosmos 1500 Rocket 4.4 22:13:37 25° SE 22:15:12 32° E 22:19:09 10° NNE
Cosmos 2263 Rocket 2.5 22:11:05 14° S 22:15:33 41° ESE 22:20:45 10° NE
Cosmos 1486 Rocket 4.1 22:10:48 10° S 22:15:54 54° ESE 22:21:04 10° NNE
Tiangong 1 3.0 22:14:13 10° NW 22:16:29 22° N 22:18:28 12° ENE
Cosmos 332 Rocket 4.0 22:12:12 10° N 22:17:03 57° ENE 22:19:41 26° SE
Cosmos 1802 Rocket 3.9 22:11:26 10° N 22:17:36 87° E 22:22:47 15° S
OAO 1 Rocket 4.4 22:13:22 10° W 22:18:44 82° S 22:22:43 18° E
Abrixas 3.2 22:17:44 10° WSW 22:20:21 47° NNW 22:23:00 10° NE
Helios 1B rocket 4.4 22:16:56 10° N 22:20:33 30° WNW 22:24:10 10° SW
Cosmos 1300 2.9 22:21:22 10° N 22:25:07 51° E 22:26:18 36° SE
SPOT 1/Viking Rocket 3.9 22:33:04 30° SE 22:35:13 49° ENE 22:40:11 10° N
USA 234 3.2 22:29:29 10° NE 22:36:01 67° SE 22:42:30 10° SW
SL-14 R/B 3.3 22:36:06 25° SSW 22:38:20 79° W 22:42:16 10° N
Cosmos 1328 Rocket 3.4 22:34:12 10° N 22:38:32 76° E 22:40:04 39° SSE
Cosmos 2016 Rocket 4.1 22:32:23 10° N 22:38:37 76° W 22:43:03 20° S
Cosmos 1151 Rocket 3.6 22:34:33 10° N 22:38:41 39° E 22:39:30 35° ESE
MetOp-A 4.3 22:39:46 23° S 22:43:05 69° WSW 22:48:26 10° NNW
CZ-4C R/B 3.4 22:46:16 22° E 22:46:16 22° E 22:49:24 10° ENE
ERS-1 Rocket 3.7 22:41:50 19° SSW 22:45:16 49° W 22:50:09 10° NNW
Cosmos 1515 Rocket 3.5 22:42:37 10° N 22:46:57 66° E 22:48:00 47° SE
H-2A R/B 3.7 22:47:34 20° ENE 22:47:58 20° ENE 22:51:04 10° NNE
Cosmos 468 Rocket 4.4 22:43:04 10° NNW 22:48:06 57° WSW 22:50:42 27° S
Delta 2 Rocket 4.0 22:42:31 10° W 22:48:14 83° S 22:52:25 20° E
Cosmos 1743 Rocket 3.7 22:46:32 26° SSW 22:48:54 72° W 22:53:13 10° N
EO 1 Delta rocket 3.7 22:47:12 39° SSE 22:48:54 76° E 22:53:32 10° N
USA 245 3.2 22:48:40 52° S 22:49:27 77° WSW 22:53:42 10° NNW
ARGOS 3.2 22:46:39 30° S 22:49:28 79° WSW 22:54:55 10° NNW
Cosmos 2058 2.9 22:50:47 52° SE 22:51:25 60° E 22:55:35 10° NNE
Cosmos 1328 4.4 22:49:33 23° SSW 22:51:52 54° W 22:55:50 10° N
Cosmos 1603 4.1 22:47:22 10° NNW 22:52:53 56° WSW 22:55:40 28° S
RESURS DK-1 3.2 22:49:21 10° NW 22:53:19 43° WSW 22:54:38 32° SSW
YAOGAN 11 4.4 22:55:56 37° S 22:57:34 65° W 23:02:06 10° NNW
Cosmos 1455 3.7 22:54:35 10° NNE 22:57:20 25° ENE 22:57:20 25° ENE
Cosmos 2233 Rocket 3.9 22:55:44 10° N 23:01:54 70° E 23:04:08 41° SSE
Cosmos 1503 Rocket 3.8 23:00:28 39° S 23:02:25 75° ESE 23:07:35 10° NNE
Nimbus 7 Rocket 4.5 22:58:42 10° N 23:04:43 78° WNW 23:08:52 21° SSW
Cosmos 2228 Rocket 3.6 23:01:14 10° NNW 23:05:43 57° W 23:07:15 37° SSW
Cosmos 371 Rocket 3.7 23:01:10 10° NNW 23:05:53 55° WSW 23:07:24 38° SSW
Cosmos 1943 3.1 23:00:14 10° NNW 23:05:55 88° ENE 23:07:41 46° SSE
Cosmos 540 Rocket 4.1 23:02:51 10° N 23:07:39 38° ENE 23:08:29 36° E
H-2A R/B 2.4 23:17:24 42° SSW 23:19:07 64° W 23:24:31 10° NNW
ERBS 3.7 23:16:06 10° NW 23:18:29 34° W 23:18:29 34° W
SPOT 5 4.1 23:24:13 27° SW 23:25:59 35° W 23:30:37 10° NNW
Sich 1 4.2 23:28:52 31° NE 23:28:52 31° NE 23:31:40 10° NNE
H-2A ROCKET BODY 3.1 23:24:12 10° WSW 23:28:32 49° SSE 23:46:37 10° E
Cosmos 2151 4.2 23:27:51 30° WSW 23:29:11 38° W 23:33:14 10° N
Lacrosse 5 3.1 23:26:20 10° WNW 23:30:40 29° WSW 23:31:05 29° SW
Abrixas rocket 4.2 23:28:19 10° WNW 23:29:56 26° WNW 23:29:56 26° WNW
Landsat 7 4.1 23:35:07 54° SW 23:35:39 58° W 23:40:22 10° NNW
Cosmos 1626 3.4 23:38:04 35° W 23:38:06 35° W 23:41:34 10° NNW
Cosmos 1703 4.4 23:39:14 38° W 23:39:32 38° W 23:43:17 10° N
SL-19 R/B 4.2 23:38:00 10° NNE 23:43:27 82° WNW 23:44:40 57° SSW
Cosmos 1707 Rocket 4.0 23:44:34 10° N 23:48:18 55° NNE 23:48:18 55° NNE
Cosmos 2278 Rocket 4.1 23:51:08 16° ENE 23:51:08 16° ENE 23:53:03 10° NE
deb Chang Zheng 4 3.8 23:45:14 10° N 23:49:17 70° NNW 23:49:17 70° NNW
Terra 2.1 23:50:32 59° WSW 23:50:35 59° W 23:55:17 10° NNW
Tiangong 1 4.3 23:49:34 10° WNW 23:49:35 10° WNW 23:49:35 10° WNW
